Location: Blienschwiller
(48.3416°N, 7.4182°E)
Time: 14:17:27
(UTC+00:00)

Meteor 2-10 Rocket - Pass Details

Date: 18 February 2020
Orbit: 734 x 884 km, 81.2° (Epoch: 08 April)

Event Time Altitude Azimuth Distance (km) Brightness Sun altitude
Exits shadow 04:03:56 74° 228° (SW) 824 3.4 -25.4°
Maximum altitude 04:04:21 80° 282° (WNW) 802 3.4 -25.3°
Drops below altitude 10° 04:09:34 10° 10° (N) 2,311 6.2 -24.5°
Sets 04:11:53 0° 11° (NNE) 3,223 7.0 -24.1°
